Hauptseite
METAR-TAF:

METAR-TAF

Flughäfen :

Flugplatz St. Gallen-Altenrhein

St. Gallen, Schweiz

Breite: 47-29-06N, Länge: 009-33-43E, Höhe: 398 m

Beobachtung

Neuester Wetterbericht von vor 12 Minuten, um 13:20 UTC
Wind 11 kt aus Süd, variierte zwischen Südost und West/Südwest
Temperatur 24°C
Luftfeuchtigkeit 24%
Luftdruck 1013 hPa
Sichtweite 10 km oder mehr
keine Wolken unter 1500 m und keine Kumulonimbus oder Gewitterwolken

METAR: LSZR 151320Z 17011KT 130V240 CAVOK 24/02 Q1013 NOSIG RMK K

Zeit: 15:32 (13:32 UTC)

Prognose

Neuester Wetterbericht von vor 2 Stunden und 7 Minuten, um 11:25 UTC
Gültige Prognose vom 15 um 12 UTC bis 15 um 21 UTC
Wind 10 kt aus Süd
Sichtweite 10 km oder mehr
keine Wolken unter 1500 m und keine Kumulonimbus oder Gewitterwolken
Zeitweise
vom 15 um 12 UTC bis 15 um 19 UTC
Wind 17 kt aus Süd, Böen bis zu 28 kt

TAF: LSZR 151125Z 1512/1521 17010KT CAVOK TEMPO 1512/1519 17017G28KT

Wetterbeobachtungen und Prognosen von mehr als 4000 Flughäfen (METAR und TAF Bericht).

Die verfügbaren Stationen werden durch gelbe und rote Markierungen auf der Karte dargestellt.

Führen Sie die Maus auf sie, um den Namen der Station zu sehen.

Darauf klicken, um die Beobachtung von Wetterbeobachtungen und Prognosen zu sehen.

Um die Karte zu ändern : klicken Sie auf den grünen Tasten mit einem schwarzen Kreuz Zum Vergrößern, auf den grünen Button mit einem Gedankenstrich zu verkleinern, oder auf die grünen Pfeile für benachbarte Karten.


METAR-TAF: